Theta_e
291 287 286 286 288 289 289 290 290 287 288 285 283 283 283 283 285 286 287 288 288 288 286 287 286 286 288 287 288 289 289 288 287 287 287 287 287 286 286 286 286 287 286 288 288 288 288 289 290 290 291 291 291 292 292 292 292 292 292 293 293 295 296 297 298 298 299 299 299 299 298 298 298 298 298 298 298 297 297 297 299 299 300 301 301 302
292 287 286 290 291 291 290 288 286 286 286 287 286 284 284 283 284 288 288 288 288 288 284 283 285 287 288 286 287 288 288 286 286 286 286 286 286 286 286 286 286 286 287 287 287 287 287 288 288 289 289 290 289 290 291 290 291 291 292 292 292 293 294 294 295 296 296 296 296 296 295 295 295 295 294 294 294 294 294 294 294 295 295 296 297 298
286 286 290 292 290 287 286 288 286 287 286 284 285 284 283 285 284 286 288 286 287 288 286 283 285 288 287 286 287 287 286 286 286 286 286 286 285 285 285 285 285 285 285 286 286 286 286 286 287 288 288 288 288 289 289 290 290 291 291 291 291 292 292 292 294 294 294 294 294 294 293 294 292 293 293 292 292 292 291 291 291 291 292 292 292 293
287 286 291 291 288 290 286 285 285 286 285 284 283 283 284 284 286 284 285 285 287 286 286 284 285 289 285 286 286 287 286 285 286 286 285 286 285 284 285 284 284 284 284 284 284 284 285 285 286 286 286 287 287 287 288 289 289 290 290 290 290 291 291 292 292 293 293 294 293 293 293 293 293 291 292 292 291 291 291 289 290 290 290 290 290 290
290 290 289 288 288 289 288 285 285 284 284 283 285 284 284 284 284 287 286 285 285 286 283 285 284 283 286 286 284 285 286 286 285 285 285 286 285 285 285 285 284 283 283 283 283 284 284 284 284 284 285 286 286 286 286 287 288 289 289 289 290 290 290 291 292 292 292 292 292 292 292 292 291 291 290 289 288 288 289 288 288 288 288 289 289 289
289 292 289 288 286 286 286 285 285 286 283 281 283 287 288 287 286 284 284 286 283 281 282 283 279 276 278 282 284 284 284 284 284 283 283 284 284 284 284 283 284 284 283 282 282 282 283 283 283 284 284 284 285 285 286 286 287 287 288 289 289 290 290 290 290 291 291 290 290 289 289 287 287 285 286 285 285 285 285 285 286 286 286 287 287 287
290 290 291 291 286 285 286 284 284 288 283 285 287 286 289 287 285 284 284 285 279 279 284 282 281 276 279 282 282 282 282 282 283 282 283 283 283 283 283 283 282 282 282 283 282 282 282 282 283 283 283 283 284 284 285 285 285 286 287 287 288 288 288 289 289 290 290 289 288 287 286 286 285 284 284 285 285 284 284 285 285 285 285 286 285 286
289 287 288 289 287 286 284 285 285 288 286 284 285 283 285 285 285 283 283 284 280 280 282 283 282 281 281 281 282 282 282 281 282 283 283 284 283 283 282 282 282 282 281 281 281 281 281 281 281 281 282 282 283 283 284 284 284 285 285 285 286 287 287 287 287 288 288 287 286 285 285 285 284 283 283 283 284 284 285 284 284 284 285 285 285 285
288 286 286 287 286 285 286 286 286 289 287 284 285 282 283 284 282 282 283 281 281 281 279 279 283 280 276 278 281 282 281 280 281 281 282 283 283 282 282 282 281 281 281 281 280 280 281 281 281 281 281 282 282 282 282 283 283 284 284 284 285 285 285 285 286 286 286 286 285 284 284 283 284 283 283 283 284 284 284 283 284 284 284 284 285 285
288 289 288 288 286 285 285 284 285 290 288 286 283 283 282 281 281 280 279 283 278 279 276 280 282 277 280 279 281 281 281 280 281 282 283 283 282 282 282 282 282 281 281 281 280 280 280 280 280 281 281 281 281 281 283 282 283 283 283 284 283 283 284 284 284 285 285 285 285 284 283 282 282 283 283 283 283 283 283 283 283 283 283 283 284 284
288 289 290 288 288 286 284 284 284 285 286 284 283 285 283 280 279 278 278 277 277 274 277 281 282 283 277 279 280 280 281 281 282 281 282 282 282 282 282 282 281 281 281 280 280 280 280 280 280 280 280 280 280 280 281 281 282 282 282 282 282 282 283 284 284 284 284 284 284 283 283 283 282 282 282 282 282 282 282 282 282 282 283 283 283 283
287 287 288 287 288 285 285 285 283 283 283 285 285 283 282 284 277 276 269 274 273 270 275 277 279 281 276 276 278 280 281 282 284 283 283 283 283 283 282 281 281 281 281 280 280 280 280 280 280 280 279 280 280 280 280 281 281 282 282 282 282 282 282 283 283 283 283 284 283 283 283 283 282 282 283 282 281 282 282 282 282 282 283 283 283 283
285 287 285 288 288 289 284 285 285 283 283 284 283 282 276 273 271 271 267 273 271 272 277 277 278 279 280 281 282 282 281 281 283 284 285 284 283 283 281 281 281 280 280 280 280 280 280 279 279 279 279 279 279 280 280 280 280 281 281 282 282 281 281 282 283 283 283 283 283 283 283 283 283 283 283 283 282 282 283 283 283 283 283 284 283 284
282 282 285 287 288 288 289 287 283 283 283 284 283 278 272 268 260 263 264 262 267 272 276 277 278 278 278 281 280 281 281 281 282 282 284 285 284 283 282 281 280 280 279 280 280 279 280 280 280 279 279 279 279 279 280 280 281 281 281 281 281 281 281 282 282 282 282 282 282 283 283 283 283 283 283 283 283 283 284 284 284 284 283 283 283 283
277 281 284 287 286 287 290 291 288 281 283 284 282 285 282 273 266 270 265 272 276 274 274 275 274 270 274 279 278 280 280 280 280 281 283 283 282 281 280 280 279 279 279 279 279 280 280 280 280 280 280 279 279 279 280 279 279 280 281 281 281 281 281 281 281 282 282 282 282 282 283 283 283 283 283 283 283 283 283 284 284 284 284 283 283 283
281 280 284 285 285 287 289 287 285 284 285 281 281 283 279 280 279 277 270 266 265 270 270 272 275 275 279 279 280 278 279 279 280 281 283 281 280 280 280 280 280 279 280 279 279 279 279 279 280 280 280 279 279 279 279 279 279 280 280 280 281 281 281 281 281 281 282 282 282 282 282 283 284 284 284 284 284 283 283 283 282 282 281 282 281 282
282 281 284 287 286 288 287 286 288 286 282 282 283 279 281 282 283 273 271 269 270 267 274 267 276 279 279 280 278 278 279 279 279 280 281 281 280 280 280 280 279 279 279 279 279 279 279 279 279 279 280 279 280 279 279 280 279 280 281 281 281 281 280 281 281 281 281 282 282 283 284 284 284 284 283 283 283 283 283 283 281 280 280 280 281 282
283 282 284 285 286 286 284 285 284 284 285 283 278 282 283 282 282 279 274 270 264 269 273 268 274 277 276 276 278 278 279 279 279 279 280 280 279 279 280 280 280 280 280 279 279 279 279 279 280 280 280 280 279 279 279 280 280 279 280 281 281 281 282 282 282 283 284 284 284 284 284 284 284 283 283 283 282 282 282 282 282 281 281 280 280 280
288 282 283 283 284 286 283 287 286 285 285 282 282 283 284 277 277 278 271 270 268 267 269 270 274 275 277 281 277 279 279 280 279 279 279 280 279 280 280 280 280 279 279 279 279 279 279 280 280 280 280 280 280 281 280 281 282 282 281 281 282 283 283 284 285 285 285 284 283 283 282 281 281 281 280 280 280 280 280 280 280 280 280 279 279 280
287 281 281 284 284 285 285 284 280 283 287 285 285 283 283 281 274 274 278 272 273 267 266 271 270 278 278 278 280 281 282 281 280 279 280 281 281 281 280 280 280 280 280 280 280 280 280 280 280 280 281 282 283 283 283 283 283 283 282 281 281 281 281 281 281 281 281 280 280 280 279 279 279 279 279 279 280 280 280 280 280 279 279 279 279 278
286 286 275 282 283 284 283 283 283 284 281 283 283 279 282 277 279 278 276 274 276 265 268 270 273 275 276 278 280 281 281 282 281 281 281 282 281 281 281 281 281 281 281 280 280 280 281 281 282 283 283 283 283 284 283 281 280 281 281 280 280 281 281 282 281 281 280 279 279 279 278 278 278 278 278 278 278 278 278 278 279 278 278 279 279 279
284 284 279 279 282 281 281 281 283 284 285 284 285 282 284 278 277 275 277 276 268 274 271 268 275 281 279 280 279 280 280 283 283 283 283 283 282 282 282 282 282 281 281 281 281 281 281 281 282 282 282 282 281 281 282 282 281 281 282 282 281 279 278 279 279 279 278 279 279 278 278 278 277 277 277 278 278 278 277 277 277 277 277 277 277 278
288 284 281 277 280 283 283 284 281 282 282 282 285 284 284 281 280 275 275 274 270 274 271 270 270 279 280 280 280 281 281 282 283 282 282 283 283 283 282 282 282 282 282 281 281 281 281 281 282 282 282 282 282 282 281 281 282 282 281 280 279 279 279 278 278 278 278 278 278 277 277 277 277 277 277 277 277 276 277 277 276 277 276 276 276 276
291 281 280 281 278 279 281 282 281 281 283 284 282 279 281 282 283 283 282 277 277 271 271 269 273 280 283 281 280 280 280 280 281 282 282 282 282 283 282 282 282 282 281 281 281 280 281 280 281 281 281 282 281 281 281 282 281 280 279 278 278 278 278 278 278 277 277 278 277 276 277 277 276 277 276 276 276 276 276 276 276 276 276 276 275 275
283 283 283 275 273 275 276 282 282 281 281 280 280 280 279 279 277 275 275 273 276 276 279 276 275 279 282 280 280 279 280 279 281 282 283 283 283 283 283 283 282 282 281 281 281 281 280 280 281 281 282 282 282 282 282 282 281 279 278 277 278 278 278 277 278 277 277 277 276 276 276 276 276 276 276 275 275 275 275 275 275 275 275 275 274 274
285 282 280 275 275 272 271 271 270 274 280 277 278 278 279 281 278 278 277 276 277 279 277 275 279 282 281 281 280 280 280 280 281 282 283 283 283 283 283 283 282 282 282 282 282 282 281 282 282 282 281 282 282 282 282 280 279 277 276 276 277 277 277 277 277 277 277 276 276 276 276 275 275 275 275 275 275 275 275 275 274 274 274 274 273 272
281 279 280 282 279 278 279 274 278 280 278 279 278 278 281 280 282 281 276 275 278 277 277 279 282 280 281 281 280 280 277 280 281 281 282 282 283 284 283 283 283 282 283 283 283 284 283 282 282 281 281 281 280 279 279 278 277 276 276 276 276 276 276 276 276 276 276 276 275 275 275 275 274 274 274 274 274 274 273 273 273 273 272 272 271 271
278 280 281 280 282 284 281 280 279 282 280 279 279 279 279 279 276 279 280 279 279 277 276 284 281 279 282 284 282 279 279 280 281 281 282 282 283 284 284 283 285 282 283 282 281 281 281 281 281 280 280 279 280 278 277 277 277 277 277 276 276 276 276 276 276 275 275 275 275 274 274 274 274 274 274 273 273 273 272 272 271 271 271 270 270 270
282 281 279 280 280 280 278 282 281 282 283 284 284 283 282 281 278 279 280 283 282 281 279 283 282 281 284 285 281 280 282 282 282 282 283 284 284 282 281 282 282 283 283 281 281 281 281 280 280 280 279 280 279 278 277 277 276 276 275 275 275 275 275 275 275 275 274 274 274 274 273 273 274 273 272 272 271 271 270 270 270 269 269 269 269 269
284 277 278 280 279 280 279 280 281 282 282 281 281 282 283 282 280 281 282 283 283 282 284 281 279 280 282 281 280 281 282 282 282 282 283 283 282 281 281 282 282 281 281 281 281 281 281 281 280 280 280 279 278 278 277 277 276 276 276 275 275 275 274 274 274 274 273 273 273 273 272 272 272 271 271 271 270 269 269 268 268 268 267 267 267 267
286 277 281 276 276 274 276 277 278 278 278 274 280 281 281 278 278 278 280 279 279 278 279 280 280 280 284 280 280 280 280 280 281 281 282 282 281 281 281 281 280 280 280 280 280 280 280 280 280 280 279 279 278 278 278 278 277 276 275 275 274 274 273 273 273 272 271 272 272 271 271 271 271 270 269 269 268 267 267 267 266 266 266 265 265 265
282 275 274 274 274 274 274 275 275 274 274 274 278 280 280 277 277 279 276 280 280 279 280 278 277 279 282 279 281 280 280 281 282 283 281 280 280 280 279 279 279 279 279 280 280 280 280 279 279 279 280 279 278 278 278 278 277 275 275 274 273 273 272 271 271 271 270 270 270 271 270 269 268 267 267 266 266 266 264 264 263 263 263 263 264 264
279 275 274 272 275 277 276 274 273 273 274 274 277 280 281 281 282 280 277 280 282 282 278 276 278 283 279 278 278 278 278 278 279 279 280 280 279 278 279 279 279 279 279 280 280 279 279 280 280 280 279 279 278 278 279 278 276 275 274 273 273 272 270 270 269 269 269 269 269 268 268 267 266 265 264 264 263 262 262 262 263 262 262 262 262 263
277 279 277 279 277 275 272 273 274 274 269 273 282 282 282 280 280 278 278 278 278 280 278 282 279 277 276 277 277 278 278 277 279 280 280 280 279 277 277 278 279 280 280 279 279 279 280 280 279 279 279 279 279 279 278 277 276 274 273 272 270 269 269 269 268 268 268 267 268 267 266 265 263 263 263 263 262 262 261 261 261 261 261 261 262 262
280 281 281 280 276 273 273 274 272 268 272 281 281 283 281 281 280 279 278 279 275 277 279 277 274 275 278 280 280 279 278 276 276 276 277 277 278 279 279 279 279 279 279 279 278 278 279 279 278 278 277 277 277 276 275 274 273 272 271 270 269 268 268 267 267 267 267 266 266 265 264 265 263 262 262 261 261 260 260 260 260 261 261 261 261 261
280 281 279 278 275 273 271 273 269 270 279 278 277 275 274 275 275 276 273 274 275 276 278 277 278 278 279 279 278 277 276 276 274 275 276 277 277 279 278 279 279 279 279 279 279 279 278 278 278 278 278 276 275 274 274 273 271 270 269 268 268 267 266 265 265 266 266 265 264 264 265 263 262 261 260 261 260 259 260 260 260 260 261 260 260 260
283 281 280 277 281 272 274 272 274 280 279 280 278 275 276 274 274 274 269 274 278 276 276 276 277 278 278 278 276 274 273 274 275 276 275 275 276 276 278 279 279 279 279 279 279 279 278 278 278 277 276 275 274 273 272 270 269 268 267 266 266 265 265 264 264 265 265 264 264 263 263 263 262 260 259 260 259 259 259 260 259 259 259 259 260 260
280 281 280 278 275 281 273 273 273 272 269 275 281 278 278 278 278 277 275 270 273 272 277 277 276 278 277 276 273 273 273 274 272 276 276 276 275 275 275 276 276 277 277 277 276 277 277 276 276 276 275 273 271 271 270 269 268 267 266 265 264 264 264 263 264 264 263 263 262 263 263 262 260 260 259 258 258 258 260 259 258 258 258 258 258 258
279 280 279 281 277 278 275 272 271 270 272 279 275 274 272 273 276 271 269 268 272 271 275 276 276 276 276 275 272 273 271 267 270 275 278 275 275 275 276 276 275 275 276 276 277 277 277 276 275 274 272 271 270 269 268 267 266 266 265 264 264 263 263 263 264 263 262 263 263 262 262 260 260 260 258 258 259 257 258 258 258 258 258 258 257 258
276 275 277 276 276 277 276 273 270 275 273 275 271 274 274 275 276 273 262 261 268 271 272 275 276 276 276 274 273 273 272 266 272 276 276 277 277 276 276 277 276 275 275 275 276 276 277 273 271 270 270 270 270 267 266 265 266 265 264 264 263 262 261 263 263 263 262 262 262 261 260 259 258 258 257 258 258 257 258 258 257 257 258 257 257 257
274 273 277 273 276 276 278 274 276 276 279 272 273 274 274 271 272 263 266 267 270 271 272 275 276 277 275 272 274 272 275 278 278 278 275 275 275 275 275 275 276 276 276 275 276 277 274 273 274 273 272 271 268 266 265 265 265 264 263 263 263 261 263 263 262 262 261 261 260 259 259 258 257 257 257 256 257 257 257 257 258 258 257 257 257 256
267 271 271 275 272 274 275 273 274 277 281 275 275 276 275 274 264 268 274 274 275 273 273 274 276 275 275 275 275 277 278 278 276 275 274 274 275 275 276 275 274 274 273 274 275 274 273 272 271 269 268 267 266 265 264 265 265 263 263 262 261 261 263 262 261 261 259 259 259 258 256 255 255 256 255 255 255 255 256 256 256 256 256 256 256 255
269 270 267 272 273 272 273 271 271 266 276 277 276 275 275 271 272 277 273 274 273 276 274 273 275 275 275 275 276 277 277 275 275 276 276 274 274 275 275 275 275 275 274 272 272 271 272 271 270 269 268 265 264 264 264 263 263 261 261 261 262 262 261 261 261 259 258 258 257 256 255 254 254 255 254 254 254 254 255 255 254 254 254 254 254 255
271 263 259 266 274 267 270 268 269 276 276 278 278 273 274 278 276 274 276 273 274 274 275 274 275 276 276 277 276 276 275 275 274 273 273 273 273 273 274 274 274 274 273 274 275 273 271 272 269 268 265 264 263 263 264 263 262 261 261 261 262 260 259 258 258 257 256 255 255 254 254 253 253 253 252 254 254 253 254 254 254 254 254 254 254 254
273 269 269 269 270 269 267 272 275 276 277 278 279 278 279 281 278 275 277 277 276 275 274 275 276 276 276 276 276 276 275 275 276 275 274 275 274 274 274 274 275 275 275 274 273 271 271 271 269 266 263 263 262 262 261 261 262 260 259 261 261 260 258 256 254 254 253 253 251 252 252 252 252 252 252 253 253 253 254 254 253 254 253 253 254 254
271 272 267 269 269 273 272 273 274 274 275 277 278 277 277 279 278 275 275 276 275 275 275 276 277 276 276 275 274 273 274 275 274 274 273 273 274 274 274 273 272 272 271 270 268 268 269 267 266 265 263 262 261 261 260 259 260 260 259 260 259 258 256 254 252 253 252 251 251 252 251 251 252 252 253 252 253 253 254 254 254 254 254 253 254 254
272 271 270 270 268 268 266 273 274 275 275 276 278 279 277 276 277 277 276 277 278 276 275 276 277 276 275 274 275 276 276 275 274 274 273 273 273 273 273 274 274 274 273 271 271 267 266 265 265 264 263 262 261 260 260 258 258 258 259 258 259 258 254 251 252 253 252 252 252 251 251 251 252 253 253 251 252 252 253 254 254 254 254 254 253 254
270 273 271 273 270 269 267 271 273 273 272 274 277 277 278 279 278 277 278 278 278 277 276 276 274 273 272 272 274 275 276 276 274 275 274 273 274 274 273 273 273 272 271 271 268 267 265 266 266 264 263 263 261 260 259 258 258 257 257 256 257 254 253 253 253 253 252 251 250 251 251 252 255 255 253 253 252 253 253 254 254 254 254 254 254 255
272 274 265 267 269 269 272 272 271 272 274 275 274 276 278 279 279 278 278 277 276 276 275 273 273 275 274 276 275 274 274 275 274 275 274 274 273 273 273 273 273 273 272 268 266 265 267 267 266 265 263 263 261 260 259 257 257 256 257 257 254 253 252 253 254 253 250 250 249 251 253 252 252 252 253 253 252 253 254 254 254 255 255 257 258 258
271 271 271 268 264 264 268 273 273 267 270 276 276 276 277 278 278 277 275 274 274 275 275 274 274 273 274 275 274 274 273 275 275 273 273 274 275 274 274 273 272 271 269 268 265 265 265 264 265 263 262 261 260 259 258 257 256 255 257 255 254 253 253 253 252 250 250 250 250 251 251 252 251 251 253 252 253 253 253 258 262 261 260 260 264 267
273 275 273 269 267 266 273 275 276 277 276 277 277 277 278 278 277 276 276 276 276 276 276 275 274 274 273 273 273 274 274 275 275 274 273 274 275 275 275 273 271 269 268 265 263 262 264 263 262 261 260 260 259 258 258 257 256 255 255 256 255 254 253 252 252 251 251 251 251 253 253 252 251 252 251 252 253 252 253 253 256 261 264 265 265 266
Wind_Speed
1 4 5 7 8 9 7 12 8 1 2 2 3 2 4 4 6 3 2 5 0 2 6 5 5 5 8 2 3 3 3 7 5 5 4 3 4 4 4 5 5 6 5 4 4 6 8 9 9 8 8 9 11 13 13 13 13 12 10 12 13 9 10 10 9 9 8 8 8 10 11 9 8 9 10 11 10 10 9 10 11 12 11 11 11 10
2 3 8 9 10 10 8 3 1 1 2 1 1 1 6 3 8 3 2 2 1 3 3 0 3 7 6 3 5 3 4 6 3 3 4 3 3 3 5 5 5 3 2 6 9 10 9 9 10 9 9 12 14 12 12 12 11 10 12 12 10 10 11 11 9 7 9 7 6 9 8 10 9 10 11 10 10 9 11 13 13 12 12 12 12 11
1 8 10 13 3 4 1 5 5 7 6 1 4 2 3 8 4 7 2 3 1 2 8 1 2 8 3 3 5 5 5 3 3 2 1 3 3 3 4 4 4 5 5 7 7 7 8 8 9 8 9 9 8 9 10 9 11 12 11 10 9 10 10 9 8 9 9 7 7 8 6 8 8 8 7 9 8 9 11 12 12 11 11 11 11 11
4 5 15 4 5 4 1 2 4 2 1 4 1 1 9 2 1 5 1 2 2 1 2 2 5 10 1 4 5 4 2 2 3 4 5 4 4 4 4 4 4 5 6 7 7 7 7 7 8 9 10 9 8 9 10 10 11 9 10 10 10 10 10 9 9 8 6 7 7 9 10 10 11 7 6 10 11 12 14 13 11 12 11 11 11 12
10 2 1 3 4 6 4 2 4 4 4 2 5 5 4 2 4 7 4 2 1 0 1 1 4 6 7 5 2 3 2 4 3 4 5 4 4 3 2 5 5 4 4 5 7 8 8 9 10 9 7 6 9 9 9 9 8 7 9 9 10 10 10 9 10 9 6 7 8 6 8 7 8 11 12 12 12 10 9 11 13 11 10 11 11 11
9 7 2 4 3 3 4 2 6 7 4 2 6 10 8 6 6 4 3 4 7 3 3 2 4 4 3 2 3 2 1 2 2 4 3 3 4 3 5 4 3 4 3 4 5 6 5 6 6 7 8 9 9 10 8 6 6 6 8 10 10 10 10 10 9 9 11 11 11 11 12 12 11 12 12 11 9 10 11 9 5 11 11 11 11 11
6 1 4 6 4 3 5 4 4 6 5 1 4 7 10 4 3 2 0 2 1 0 1 2 0 8 3 3 3 2 3 3 1 3 1 2 2 3 3 3 3 4 5 5 5 5 7 7 7 8 9 8 9 8 6 6 6 7 9 10 11 11 10 9 9 9 10 13 12 13 12 10 10 10 7 4 5 6 6 7 10 9 11 11 12 11
1 2 0 0 4 5 4 5 4 9 5 3 1 3 3 4 4 4 4 4 3 1 3 1 2 6 5 2 1 3 3 1 2 0 1 1 1 2 3 3 3 4 3 3 4 5 5 5 6 8 7 7 7 5 5 5 5 9 10 11 12 10 11 9 8 11 10 12 11 13 12 11 11 10 7 6 6 6 6 10 10 9 9 10 11 11
2 0 1 3 2 5 7 4 5 7 6 2 1 3 4 5 4 5 4 4 0 1 6 3 1 1 4 2 1 2 3 1 3 2 3 2 1 1 2 2 3 3 3 3 3 4 4 4 5 4 6 4 5 5 4 4 4 6 9 11 12 13 11 9 10 12 12 11 11 11 10 12 8 7 6 5 7 8 8 11 9 10 9 9 10 10
1 1 2 6 5 5 4 2 2 9 5 1 4 7 6 6 6 4 5 3 1 1 5 4 3 3 7 1 0 2 3 4 5 6 5 4 3 2 2 2 2 2 3 3 2 2 3 3 3 3 3 4 4 4 4 4 4 6 8 12 15 12 9 8 10 12 12 11 10 12 11 12 8 7 7 7 9 8 7 10 9 8 9 8 9 9
0 4 4 4 4 4 4 0 2 0 1 6 3 5 5 8 4 3 6 2 2 3 7 8 8 6 7 4 6 6 7 4 6 2 3 3 3 2 2 2 2 2 2 1 2 2 2 1 2 2 3 3 4 4 4 4 5 5 9 11 15 9 8 9 10 12 12 10 10 11 11 11 10 8 8 10 10 8 10 10 9 8 8 8 8 8
1 1 0 2 4 3 3 4 3 2 2 3 1 2 2 1 6 2 3 4 1 6 3 3 2 0 7 4 5 5 1 4 12 12 11 9 8 6 4 3 3 2 1 0 1 1 1 3 3 2 4 4 4 4 4 4 4 6 7 11 14 9 9 8 9 11 10 10 10 10 10 11 9 8 9 10 9 8 8 8 8 6 7 7 7 8
3 7 2 1 4 8 2 7 3 3 2 4 4 4 1 4 6 3 2 2 5 4 1 3 1 2 11 6 2 5 5 3 5 3 13 13 9 8 5 4 3 3 2 1 1 0 1 2 2 3 3 4 4 4 4 5 5 5 7 9 14 9 7 8 8 11 10 10 9 9 9 9 8 9 9 8 8 6 7 7 8 8 8 7 8 8
5 1 0 3 2 4 6 6 3 1 1 5 5 4 5 1 2 3 6 1 5 4 3 1 1 4 2 6 2 4 3 2 3 4 3 10 13 11 7 5 4 3 3 2 2 1 2 1 1 1 3 3 3 4 4 4 5 5 7 7 12 8 6 6 8 9 10 9 8 7 8 8 7 8 7 7 7 6 6 5 6 7 6 6 6 6
1 2 4 6 4 2 5 7 9 5 8 7 2 7 7 8 4 4 3 4 6 4 3 4 1 6 1 3 1 5 4 3 4 5 4 4 3 4 4 4 4 3 3 3 3 3 3 3 2 2 2 3 3 4 4 4 4 5 6 8 10 9 6 6 7 7 9 7 6 6 7 7 6 7 7 7 6 5 6 6 7 6 5 6 6 6
5 4 3 2 2 1 8 0 5 6 5 1 2 5 6 6 6 5 3 3 1 3 4 2 5 4 4 0 2 2 1 2 2 4 7 7 5 5 5 6 6 5 4 4 4 3 3 3 2 2 2 3 3 4 4 4 4 5 6 6 7 8 5 6 6 6 7 6 6 6 7 7 7 6 6 6 5 5 5 5 6 6 5 5 5 5
2 2 1 4 2 1 0 0 0 2 5 3 4 4 5 1 4 2 2 2 1 3 9 2 6 5 2 0 2 3 2 2 2 4 7 8 7 6 7 7 5 5 5 5 5 4 4 3 3 3 3 3 3 4 4 4 4 5 6 7 7 6 5 5 5 5 5 5 6 6 6 6 6 7 7 6 6 5 5 5 5 5 4 4 4 4
6 3 1 4 3 1 0 0 2 4 3 8 2 7 2 2 4 4 3 2 4 4 8 3 6 4 1 8 0 1 1 1 3 4 5 5 6 8 8 7 7 7 7 5 4 4 4 4 4 4 3 3 4 4 4 4 3 4 4 5 7 6 7 4 4 5 4 5 5 5 5 5 5 5 5 5 5 5 6 5 5 4 5 4 3 3
3 2 1 1 0 3 2 0 4 2 3 2 1 2 2 2 1 2 4 3 3 4 6 4 1 5 7 7 2 5 6 8 6 5 6 9 10 11 8 8 7 5 4 6 7 6 5 5 5 4 4 4 3 3 4 3 3 3 4 4 4 6 5 5 4 4 3 3 4 3 4 4 4 4 4 4 4 4 4 4 4 4 3 3 4 5
1 2 3 1 2 1 1 3 5 3 2 2 2 2 0 2 2 4 6 3 3 6 3 9 2 12 5 5 10 8 12 10 9 8 13 16 14 11 9 9 10 9 9 9 7 6 6 5 5 5 5 5 5 4 4 4 3 4 4 4 4 4 4 4 4 4 5 4 4 4 4 4 4 3 4 4 4 6 5 4 5 5 5 5 4 4
2 2 2 1 2 1 2 4 8 9 5 2 2 0 0 0 2 3 1 3 4 4 5 6 10 5 2 4 6 6 7 12 16 16 13 12 11 10 11 13 11 10 10 8 8 7 7 6 6 5 4 4 4 3 4 4 4 4 4 4 4 6 4 4 3 4 4 4 4 6 6 5 5 5 3 4 4 5 4 4 4 4 4 4 6 5
2 1 5 0 0 3 7 1 1 4 4 7 9 8 9 5 1 1 9 3 1 3 6 2 14 8 3 2 2 2 4 8 13 14 14 14 14 15 14 12 11 10 9 9 8 7 6 6 5 5 4 3 4 4 4 4 3 4 4 3 3 3 3 4 4 4 4 4 4 5 4 4 4 3 4 5 5 5 4 4 5 4 4 5 4 5
3 2 3 3 6 8 3 0 1 1 1 1 5 6 5 2 4 4 9 6 2 4 4 3 0 11 1 2 2 3 3 5 5 4 6 7 11 12 10 8 7 8 10 9 8 7 6 6 6 7 7 6 6 6 5 4 5 4 4 2 1 3 2 2 2 2 3 4 5 4 4 4 5 4 5 5 4 5 5 4 4 4 5 5 5 4
4 1 1 4 2 3 2 0 2 2 1 1 1 3 3 6 7 9 8 5 6 0 1 1 3 5 1 1 2 3 4 4 4 7 7 5 7 8 8 8 10 8 5 4 4 4 5 6 5 6 7 7 6 5 6 5 4 3 1 1 2 2 0 1 1 2 3 4 5 4 5 5 4 6 5 5 5 5 4 4 4 4 4 3 4 5
2 3 5 1 3 3 3 1 0 2 2 0 2 1 1 2 4 1 5 2 2 7 7 5 14 9 1 0 1 1 3 4 7 7 11 12 10 11 12 10 8 7 5 5 6 7 6 6 8 9 6 6 6 6 6 5 4 2 1 1 2 1 1 1 1 3 3 4 5 5 6 5 5 5 5 5 4 4 4 4 5 5 5 5 7 6
3 3 6 5 9 9 7 4 5 4 6 2 1 1 3 6 5 3 5 2 8 3 9 5 13 3 1 1 1 1 2 1 2 6 5 6 6 10 10 11 9 7 9 9 8 7 11 11 8 6 7 7 7 7 6 4 3 2 2 2 1 2 3 2 3 4 5 4 5 4 5 4 5 4 4 4 4 4 4 5 5 5 5 5 7 6
2 1 3 7 9 11 8 2 2 3 2 5 4 6 8 5 7 5 2 3 12 2 7 10 12 0 5 3 2 2 2 5 7 6 8 9 10 10 7 6 7 8 9 11 12 10 6 6 10 11 8 7 6 5 5 4 3 3 3 2 1 2 3 3 4 4 5 5 5 5 4 4 3 3 2 3 3 3 3 4 4 4 4 5 4 5
2 2 6 6 7 9 3 2 3 5 4 2 2 5 5 3 2 6 11 11 5 2 13 9 4 2 7 10 4 4 5 5 6 6 7 6 7 11 11 5 4 4 5 5 5 6 10 11 9 8 9 7 7 5 4 3 4 4 4 4 3 3 4 3 5 5 5 5 5 4 3 1 0 1 1 1 2 2 3 3 3 3 4 3 5 4
5 7 3 4 7 4 3 4 5 3 4 4 6 8 10 8 7 10 9 11 5 10 15 6 4 7 9 9 2 8 9 9 10 11 13 11 6 3 4 5 7 9 8 7 8 8 9 10 11 10 9 9 6 6 5 4 3 3 3 3 3 3 4 3 5 5 4 4 4 3 2 2 1 2 1 2 2 3 3 3 3 4 4 4 4 5
3 4 4 3 5 2 4 4 3 6 2 3 7 12 13 10 12 13 14 15 15 13 10 2 2 9 10 2 3 4 4 3 4 2 0 1 4 4 3 5 8 8 6 8 9 11 11 12 10 10 9 7 8 7 6 5 5 5 6 5 3 4 3 4 4 5 4 3 3 2 2 2 2 2 2 3 4 4 5 5 5 5 4 5 5 5
3 4 7 1 2 5 3 3 2 3 4 5 10 14 11 2 4 9 10 3 5 5 7 7 10 16 8 5 3 2 2 2 3 4 6 5 3 5 6 8 6 5 6 7 8 9 10 9 8 7 8 9 9 9 8 7 6 5 4 5 4 4 3 3 4 3 3 3 2 2 2 3 3 3 4 4 4 5 5 5 5 5 5 5 5 6
3 4 3 2 3 4 1 4 2 1 0 4 13 21 10 6 9 10 6 5 7 10 6 4 9 13 5 5 2 4 4 6 9 9 6 5 6 6 7 6 5 6 8 9 10 9 8 9 9 10 11 10 9 8 7 7 7 6 7 5 5 3 3 3 3 4 3 3 2 3 3 3 3 3 3 3 4 4 3 4 4 4 4 5 5 5
5 5 4 2 5 8 3 6 5 3 1 7 20 21 11 13 15 3 2 8 13 9 8 10 14 10 1 2 1 6 7 7 6 6 8 7 5 4 7 8 6 5 7 9 9 9 10 12 13 12 9 7 8 9 8 9 8 8 7 7 4 4 4 3 3 4 3 3 3 2 2 3 3 3 3 3 3 3 3 4 4 4 5 5 4 4
3 7 5 5 6 2 4 4 5 6 9 18 2 7 10 13 13 13 11 10 8 9 8 10 7 2 2 4 7 10 9 7 9 9 4 4 5 5 6 6 7 8 8 7 6 9 10 8 7 7 8 9 7 6 6 6 8 6 5 6 5 5 3 4 3 3 3 2 2 2 3 4 3 3 3 3 3 3 4 4 4 4 3 3 4 4
8 7 6 3 5 4 4 5 3 11 17 1 4 2 5 9 7 11 10 10 7 9 11 7 4 3 9 12 11 9 6 4 3 4 4 5 5 6 7 8 10 10 10 8 6 7 8 9 7 6 6 6 6 6 8 6 6 8 6 6 6 3 5 3 3 3 2 2 3 3 3 5 3 3 3 3 3 3 4 4 4 4 4 3 5 5
7 8 3 1 4 3 3 7 8 11 1 3 1 2 2 7 2 2 4 5 9 12 12 10 9 12 14 12 7 2 3 3 3 5 7 7 8 10 8 9 10 9 8 9 11 10 9 10 11 11 9 5 7 7 7 8 7 8 6 4 5 4 4 4 3 3 2 3 3 3 3 3 2 3 3 3 3 4 5 4 4 5 5 4 4 3
9 4 5 5 4 6 5 8 15 6 10 8 6 2 5 5 6 7 6 7 10 7 8 8 11 14 12 9 3 0 0 1 4 7 4 9 9 7 9 9 7 8 8 7 7 9 7 6 6 5 7 7 7 9 8 7 7 8 7 6 4 5 3 3 3 2 3 2 2 2 2 2 2 2 3 3 4 4 4 5 5 4 3 5 5 6
1 9 5 6 4 8 6 6 4 4 11 13 8 1 1 3 6 4 4 7 2 5 10 11 13 14 9 4 2 2 2 1 7 9 5 6 6 7 5 5 4 5 5 5 2 2 4 4 5 5 8 9 7 6 7 7 8 8 7 5 4 4 4 3 2 3 2 2 1 1 1 1 1 2 3 3 4 5 4 4 4 4 3 5 7 7
2 1 1 9 4 5 8 9 9 10 11 5 3 0 1 1 9 5 1 9 5 9 12 11 10 9 8 6 4 5 4 2 7 9 8 4 4 5 6 6 5 5 5 6 9 8 7 6 6 7 6 8 9 7 7 8 8 8 7 5 5 3 4 3 3 3 3 2 1 0 0 0 1 1 3 4 4 4 5 5 5 4 4 4 4 7
2 1 2 5 8 9 7 7 9 4 5 4 3 2 3 4 6 5 3 8 5 8 6 8 11 10 9 5 8 7 7 7 7 9 4 6 7 6 7 7 6 5 5 5 3 5 7 8 9 6 8 10 9 8 9 7 7 6 7 6 5 4 4 4 4 3 3 2 1 0 0 0 1 2 3 4 4 4 4 4 5 4 5 5 4 6
2 2 2 11 11 12 15 9 5 7 4 3 8 5 4 2 5 4 13 7 2 5 6 9 10 10 7 7 8 7 10 10 8 5 1 2 2 3 4 4 5 6 8 8 7 8 9 9 11 14 14 9 9 9 8 7 7 6 5 6 5 5 5 4 4 3 2 2 0 0 1 1 1 3 3 3 5 4 4 4 5 6 5 6 6 5
2 3 4 2 6 11 9 8 9 6 4 7 3 11 8 4 3 12 6 3 8 6 8 10 10 7 7 11 10 9 9 9 4 0 1 4 6 4 5 4 3 3 2 2 6 8 7 7 5 4 4 5 9 8 7 7 8 5 6 4 5 4 4 5 4 3 2 1 0 1 1 2 2 3 3 4 4 5 5 4 4 5 6 5 6 7
8 7 6 9 2 2 1 7 5 11 3 12 10 2 1 5 8 4 3 1 5 8 10 8 8 6 9 8 10 11 9 4 5 7 6 4 4 4 6 7 8 8 8 6 4 4 8 8 8 9 8 7 8 7 6 7 7 6 4 5 5 5 5 4 4 2 1 0 1 1 2 2 3 4 3 4 4 4 6 5 5 5 4 6 6 7
4 4 3 3 5 6 8 10 10 4 6 12 14 9 6 11 6 6 6 5 4 5 7 6 7 8 9 10 10 10 8 6 5 5 4 4 5 4 3 4 3 3 4 6 7 11 9 9 7 7 6 7 6 6 6 9 8 6 6 6 4 5 4 3 3 2 1 1 1 2 3 3 4 4 3 4 4 4 5 6 5 5 5 5 5 7
6 9 8 8 5 9 9 6 1 3 11 11 8 5 9 12 5 8 7 7 7 6 5 5 8 8 10 10 9 8 7 8 9 7 7 8 7 7 7 9 11 11 11 10 8 8 9 12 12 10 7 7 6 6 6 5 9 7 7 4 5 4 4 3 2 2 1 2 3 3 3 3 3 4 4 4 4 4 5 6 5 6 4 4 5 6
4 2 1 2 7 3 1 2 0 0 4 11 8 4 5 8 6 4 6 5 5 6 9 9 9 8 9 8 7 5 7 8 7 7 6 6 6 7 6 5 5 5 5 2 2 6 7 5 7 10 11 7 7 7 5 5 7 9 5 5 5 4 4 4 3 2 3 3 3 4 3 3 4 4 4 4 4 4 5 5 6 6 6 5 6 6
5 2 2 5 2 3 7 2 5 7 5 8 12 10 4 3 6 5 5 7 7 5 7 8 8 7 7 8 10 10 10 9 8 7 6 5 7 7 8 10 10 10 10 10 9 8 7 8 10 11 11 11 8 7 6 5 4 5 5 7 6 5 4 4 4 3 3 4 4 3 3 3 4 4 4 4 4 4 4 5 5 6 6 5 6 7
6 5 4 11 4 5 6 5 5 2 2 4 7 7 9 12 10 6 7 7 7 5 5 6 1 1 5 6 10 9 11 8 8 9 6 8 8 9 8 9 10 7 8 8 7 9 7 9 12 12 12 12 10 8 7 6 6 5 6 4 5 5 5 4 4 5 4 4 3 3 3 4 5 5 4 4 4 4 5 5 5 6 7 6 6 7
4 5 5 3 4 4 3 4 1 2 5 6 7 8 10 8 7 6 6 6 5 6 6 3 4 6 7 10 8 8 8 9 9 10 8 7 7 6 8 10 10 11 9 9 9 12 14 13 13 12 13 10 9 8 7 6 6 6 6 6 5 6 6 5 4 4 4 4 2 4 3 4 4 4 4 4 4 5 5 6 6 7 8 7 8 8
5 8 3 3 2 2 8 9 5 1 6 9 10 13 13 13 9 6 4 5 6 8 8 7 8 5 7 7 6 8 9 10 9 7 9 10 10 9 8 9 8 7 8 8 7 10 8 8 11 11 11 8 9 9 8 7 6 5 6 5 5 6 6 5 4 3 4 3 3 4 3 3 3 3 3 4 5 5 5 8 13 10 8 6 12 18
10 13 7 7 7 5 7 8 10 12 9 9 8 7 11 10 8 9 10 10 10 9 8 7 8 7 8 10 7 9 10 11 11 8 9 9 10 10 10 9 7 6 9 8 9 9 11 10 8 8 8 9 9 9 8 7 6 6 5 6 6 7 6 5 4 4 4 3 4 4 3 3 3 4 3 4 4 4 6 7 6 12 16 15 13 15
Wind_Direction
116 152 184 207 214 213 212 203 207 122 132 119 104 120 210 229 277 283 261 254 280 342 257 257 263 266 278 0 343 349 51 62 62 63 60 47 48 41 39 35 29 37 25 332 359 18 14 12 13 14 19 18 29 27 23 30 28 29 26 35 31 17 27 37 38 41 44 52 58 58 61 65 47 50 55 51 42 39 36 30 34 34 35 33 35 33
73 183 235 225 218 213 218 206 121 92 70 157 164 205 283 193 265 258 256 350 314 162 292 50 335 281 276 10 359 358 59 44 31 74 65 66 55 49 46 39 24 358 356 9 23 14 16 15 15 20 26 24 30 17 23 29 27 29 32 38 30 25 32 33 33 45 54 43 61 86 72 78 58 50 48 48 40 38 41 39 36 34 31 33 32 27
120 206 233 230 200 93 88 172 189 197 223 184 215 248 306 268 243 294 324 357 325 104 267 17 279 271 300 32 35 39 59 59 40 54 62 73 55 43 38 39 28 28 19 21 19 17 15 11 19 27 28 31 32 27 28 21 34 32 34 34 37 34 35 30 27 44 53 52 48 67 65 71 82 62 66 66 53 45 47 43 38 35 34 33 35 29
265 271 246 229 152 174 43 89 133 114 107 187 119 163 236 221 22 294 301 13 11 122 280 353 331 287 38 74 64 35 58 74 57 61 60 56 60 50 44 36 31 22 16 20 12 12 8 15 22 27 29 24 29 32 28 26 33 36 36 36 39 40 38 36 29 40 44 63 74 70 76 71 71 67 58 62 47 41 41 38 35 36 32 34 37 31
211 214 338 111 154 168 189 116 125 136 228 261 192 203 234 201 230 191 248 315 289 44 85 349 309 302 256 227 110 73 71 74 21 44 48 39 48 55 64 55 44 42 14 16 16 15 14 20 22 23 21 21 38 34 31 26 31 41 43 44 48 47 45 43 39 42 49 57 55 61 71 70 64 44 40 41 35 36 41 43 35 28 32 37 40 35
269 243 126 63 86 105 122 149 200 149 227 311 230 202 219 210 222 273 333 17 12 336 352 61 341 298 298 293 168 166 37 33 0 59 34 28 33 36 44 35 26 32 34 33 22 13 11 21 18 25 25 33 35 34 21 19 29 44 52 54 55 54 48 44 43 47 59 59 62 54 51 48 51 50 38 37 31 32 38 44 42 42 38 39 43 39
218 343 172 215 140 143 158 181 229 154 166 68 271 199 223 200 161 151 100 81 314 139 347 32 217 276 307 249 195 141 92 68 12 49 26 23 40 38 38 33 26 21 18 18 26 19 25 14 28 31 30 23 36 23 7 16 32 48 56 58 58 58 53 45 46 49 65 67 65 71 74 72 69 76 56 51 42 55 49 55 48 45 41 39 42 39
118 358 349 47 154 160 171 221 243 159 121 233 249 138 136 146 169 189 162 169 217 268 302 12 147 267 290 287 59 145 112 66 76 2 21 55 40 46 48 37 29 24 22 24 18 16 16 19 29 36 21 24 22 5 13 24 28 53 58 62 61 59 57 48 50 58 56 75 73 75 74 71 69 68 73 52 53 51 51 54 45 44 42 39 40 39
129 15 164 181 163 176 214 209 192 166 147 220 222 136 144 153 169 127 115 153 122 46 284 310 267 309 263 262 7 151 174 230 241 213 213 216 210 86 60 41 41 32 26 28 25 16 8 21 26 26 35 13 22 22 32 29 36 56 64 68 67 61 59 52 55 64 58 67 71 75 76 76 65 69 66 65 53 50 41 54 40 43 38 38 37 39
303 186 216 157 146 210 228 293 179 177 193 252 124 92 84 76 70 108 106 121 323 51 267 233 183 229 277 271 244 279 287 244 207 212 212 214 204 173 116 76 65 39 36 26 16 3 10 9 22 19 37 39 29 26 35 37 50 62 71 71 69 61 59 58 62 67 65 65 70 72 71 78 70 61 61 58 52 46 39 51 42 37 37 32 33 30
170 299 161 130 187 204 140 104 140 26 122 137 117 65 19 37 25 25 64 87 58 273 246 212 202 174 286 250 213 159 218 181 150 220 227 224 222 205 194 165 142 96 49 24 10 4 3 349 28 31 68 58 46 39 54 64 65 73 76 80 73 69 69 65 69 72 71 71 69 75 74 75 75 66 64 60 50 43 42 44 37 36 32 32 32 26
349 33 174 245 98 111 115 89 32 82 115 128 86 122 44 342 7 36 343 35 132 264 260 5 219 75 202 290 271 232 226 187 166 181 187 192 193 193 185 190 167 153 125 37 49 39 26 50 41 55 74 63 58 55 60 62 62 69 77 85 84 69 69 70 74 76 76 77 74 77 77 76 73 71 66 64 59 49 53 48 44 35 38 34 31 30
257 225 235 342 216 138 120 87 13 29 20 80 83 46 79 268 29 321 20 245 200 208 198 358 351 333 248 222 208 202 212 227 226 210 184 178 182 187 190 182 181 167 163 142 167 207 68 108 115 94 80 73 58 63 64 65 70 70 71 80 88 73 67 71 74 80 81 79 77 81 81 81 77 74 73 70 68 54 57 49 45 37 36 27 28 24
276 313 67 226 75 229 139 132 154 89 217 119 144 136 86 39 52 258 278 240 303 297 274 309 163 248 252 287 227 217 239 224 264 260 219 182 176 178 178 174 171 175 168 184 191 204 213 195 153 125 110 94 95 84 77 74 77 78 81 80 86 83 69 73 74 78 80 77 81 82 84 83 82 77 74 69 68 59 59 55 54 49 42 36 33 19
72 334 269 151 226 166 180 187 182 159 157 202 122 144 182 143 157 265 202 256 256 229 272 272 67 232 116 224 195 237 267 293 259 233 190 144 136 145 152 159 161 170 197 196 211 205 202 216 204 155 133 132 125 107 94 91 88 91 89 87 91 88 71 75 79 79 79 80 78 78 80 83 81 81 74 68 65 59 55 46 52 47 39 36 21 20
193 214 260 296 256 152 178 312 109 101 55 143 159 81 95 224 141 228 203 163 240 329 329 189 202 192 184 59 267 290 301 19 21 123 133 135 137 142 151 176 187 190 196 198 207 224 234 228 219 186 156 154 135 123 114 102 109 103 101 97 95 100 97 89 87 82 88 87 83 78 79 77 78 79 80 75 66 60 60 53 56 45 40 29 18 8
64 289 284 329 76 76 354 116 357 136 207 209 109 196 208 156 118 78 22 67 78 52 255 135 304 289 312 34 358 333 64 18 75 133 149 157 165 170 187 191 193 197 197 204 206 207 216 217 216 195 176 158 143 129 126 129 132 122 118 110 105 102 99 96 96 96 92 90 86 80 81 82 81 81 81 84 75 69 57 58 48 48 32 28 23 11
139 232 295 99 218 341 234 331 107 27 142 98 175 228 163 152 119 125 226 331 68 206 270 82 218 277 69 276 41 16 130 219 188 177 174 165 172 187 201 195 197 201 203 206 211 213 211 208 192 191 194 178 159 147 141 145 154 130 124 124 118 116 113 114 106 103 105 102 97 95 88 78 82 85 82 77 76 60 59 45 44 38 33 23 358 13
108 292 302 10 131 309 0 104 34 353 41 144 190 210 118 233 192 328 86 273 265 257 270 290 276 257 191 241 104 248 204 210 195 192 172 190 195 202 199 204 209 210 209 212 212 207 210 204 198 185 183 190 176 170 162 158 151 132 121 123 122 125 128 130 123 120 100 96 99 96 87 84 74 72 78 77 79 79 68 58 46 43 31 13 13 13
60 172 292 349 115 287 6 90 202 199 340 51 87 53 356 110 168 130 199 193 141 272 3 285 2 265 182 221 182 204 201 188 174 186 204 200 194 191 197 200 201 202 205 204 203 202 199 203 195 187 180 180 180 174 177 162 153 142 142 127 124 114 116 109 103 103 95 89 97 89 77 56 68 59 64 63 61 50 47 36 32 25 19 13 10 11
124 112 212 308 305 91 179 193 209 161 160 76 91 324 356 25 230 98 3 143 195 193 207 267 285 271 261 201 174 216 194 184 179 192 199 198 196 202 203 199 198 201 202 203 200 193 192 192 190 190 194 190 181 170 163 164 157 160 140 129 129 121 111 101 110 97 86 81 67 70 57 45 47 42 39 58 43 48 36 27 28 25 9 7 18 9
92 152 188 210 135 215 236 270 228 186 185 170 169 203 177 127 176 221 259 64 98 147 236 179 258 279 266 168 198 201 218 191 203 189 190 196 197 200 202 202 198 199 206 203 196 185 185 185 183 191 194 189 173 183 172 181 161 160 149 136 117 95 121 124 75 64 71 68 69 66 62 56 60 52 46 55 37 36 27 17 18 11 13 22 1 11
153 144 100 188 197 205 229 315 260 190 89 180 163 237 168 160 121 164 242 238 36 248 98 192 296 264 218 219 225 237 212 219 199 195 224 214 207 206 209 207 210 209 204 199 189 185 183 181 184 187 188 188 188 187 181 177 170 167 162 144 108 116 66 52 74 83 87 84 74 75 76 65 49 47 42 43 30 24 18 12 10 14 18 6 0 1
87 96 8 287 330 317 325 311 106 82 52 355 343 85 123 188 192 208 224 183 189 211 226 322 246 260 303 169 239 230 228 220 181 185 199 199 206 217 212 212 212 213 217 191 180 171 181 185 187 186 197 195 194 189 189 186 179 176 101 69 75 80 6 46 87 125 97 88 74 76 73 59 44 45 35 33 18 16 7 11 11 6 16 4 2 359
117 263 135 271 349 341 343 341 25 349 56 196 230 242 150 88 63 102 82 72 218 206 202 146 254 256 248 93 336 61 112 153 189 200 186 193 201 205 207 210 209 207 192 182 183 188 184 189 195 199 192 192 194 196 192 190 184 131 122 108 113 148 137 84 86 100 90 101 91 69 70 54 44 43 29 21 12 5 7 7 10 9 9 7 3 360
148 183 127 187 223 243 254 204 247 250 220 229 207 282 261 167 148 122 237 173 234 191 149 204 253 241 271 353 15 46 103 142 236 219 230 218 210 205 205 206 202 189 196 192 189 179 195 199 193 186 197 198 197 194 196 185 154 129 129 114 128 143 101 99 105 100 98 95 92 73 64 52 41 35 22 14 5 8 7 11 12 10 7 8 356 351
165 88 158 185 195 231 232 199 238 96 63 175 233 191 217 199 209 194 97 168 221 182 194 229 240 24 290 216 225 238 199 193 209 205 205 213 217 213 212 209 201 199 198 196 194 196 182 181 195 200 198 198 196 199 191 173 159 143 132 97 92 126 126 130 109 97 92 88 86 75 61 51 32 29 27 9 8 8 18 19 11 12 3 355 353 342
73 205 231 211 220 238 171 189 196 165 184 210 179 263 229 205 173 192 200 228 138 160 247 229 105 175 243 264 197 206 233 237 239 221 219 231 224 207 202 192 176 195 212 202 193 183 193 200 197 195 199 196 200 188 172 163 161 158 154 146 138 133 121 112 101 95 92 91 85 85 85 88 111 102 62 34 39 34 31 19 9 8 354 351 349 350
149 214 243 150 250 213 171 188 168 162 208 230 236 241 248 209 160 202 228 247 182 224 254 259 166 199 242 253 158 199 206 209 212 213 213 218 215 145 137 172 198 208 205 193 202 201 201 201 201 198 196 199 183 178 171 152 131 117 112 126 136 125 113 110 105 103 104 99 106 128 143 147 116 99 65 58 46 41 19 10 4 359 356 354 352 352
101 247 213 162 234 193 211 185 186 192 217 264 241 247 245 234 215 213 224 226 218 236 254 307 5 257 251 232 159 230 218 216 242 258 295 214 205 167 191 213 216 219 204 204 206 205 207 207 199 195 193 190 185 180 174 165 158 157 153 153 141 122 117 105 110 119 119 120 128 126 114 102 77 62 52 40 28 20 7 0 359 354 354 358 355 344
135 274 101 104 216 269 246 110 115 170 180 250 262 254 246 177 217 226 236 255 29 316 284 290 276 270 262 149 194 251 225 255 319 275 223 217 187 195 210 226 233 227 220 219 218 215 212 208 202 192 190 192 188 185 177 171 165 158 152 148 143 142 138 116 122 120 131 130 127 112 85 78 57 46 39 28 18 7 3 357 353 352 351 357 350 345
121 254 59 104 202 286 216 151 156 83 73 235 264 258 231 167 238 231 214 182 211 228 244 267 262 259 275 112 195 249 234 234 236 247 253 241 222 216 226 241 233 229 225 222 221 214 206 203 200 195 196 193 187 180 172 166 165 160 165 155 151 143 122 127 133 132 122 116 98 81 77 69 62 46 35 23 12 1 355 351 350 351 351 345 344 340
178 139 154 152 216 243 228 146 142 104 346 297 248 245 229 222 231 223 116 197 212 202 213 233 243 252 230 168 218 249 227 236 247 237 245 252 248 225 233 237 236 233 230 226 219 210 205 202 201 199 192 182 182 182 185 163 157 175 162 154 149 126 137 136 124 116 109 96 103 105 95 72 57 38 26 14 5 351 348 355 345 347 345 339 331 324
134 161 189 178 222 172 110 139 128 153 219 235 297 138 182 219 224 229 228 219 218 176 214 223 254 335 313 271 237 254 242 220 219 234 216 217 225 238 250 251 249 244 243 238 218 211 211 205 199 194 190 187 185 176 153 156 157 144 134 130 126 137 137 120 107 110 120 122 120 96 72 58 39 26 9 1 354 352 347 348 343 331 318 316 323 323
175 190 200 172 174 199 150 116 180 213 230 209 151 190 177 203 198 206 215 225 216 217 232 256 281 254 241 236 239 241 249 257 270 247 253 227 209 223 227 233 236 235 233 224 217 212 206 198 189 175 175 178 159 141 134 125 126 128 124 130 127 129 116 111 121 128 145 115 88 68 57 42 27 9 354 349 347 346 340 336 325 327 324 324 321 321
177 181 135 203 118 62 127 191 225 238 236 293 320 18 60 78 65 104 318 275 231 214 207 220 231 235 239 245 253 238 243 258 277 248 230 238 211 212 215 226 231 222 219 214 206 207 192 190 187 185 180 141 137 143 146 143 138 130 131 122 125 119 116 126 132 132 103 86 70 63 54 39 12 353 343 338 338 337 329 327 323 324 321 316 306 292
178 147 181 211 164 196 197 198 236 342 312 267 241 205 164 174 164 162 229 252 237 188 177 201 225 242 242 252 245 83 2 9 310 284 237 221 226 215 212 224 218 216 218 221 203 205 196 185 176 161 133 144 148 147 146 138 132 128 127 122 119 119 131 126 117 111 103 104 87 70 52 26 3 335 333 329 330 324 322 324 322 316 313 311 307 311
272 183 194 198 242 194 192 235 246 233 240 247 256 95 30 153 139 164 146 278 270 181 191 193 219 236 245 233 156 151 81 35 305 283 248 231 206 208 228 240 243 215 211 204 179 157 148 138 114 125 145 143 142 139 134 138 136 132 129 134 137 131 137 118 136 140 126 126 114 83 70 10 346 323 322 324 317 312 310 308 296 294 307 306 310 308
352 72 148 204 223 208 218 229 225 242 246 263 265 278 328 80 117 89 72 270 256 189 207 186 212 233 226 201 185 133 106 209 254 257 264 239 223 205 207 225 209 210 205 191 176 168 164 154 143 135 127 139 147 153 143 139 135 134 144 148 150 142 142 156 163 157 147 147 129 135 110 334 330 316 314 306 301 302 303 304 299 297 296 283 287 290
57 12 154 189 215 222 236 236 241 227 267 259 144 165 165 133 94 67 300 269 260 198 188 170 202 221 221 190 147 156 156 203 244 253 227 218 210 202 193 208 207 211 209 195 191 160 143 130 119 129 153 172 172 150 149 142 141 148 150 157 148 152 173 182 171 152 139 149 135 125 110 323 319 303 301 295 296 295 289 293 299 295 298 294 285 293
183 296 218 220 216 222 225 243 264 259 248 157 157 140 145 132 82 103 238 233 242 193 195 186 202 212 179 153 164 172 221 203 208 215 202 167 122 215 234 233 218 196 184 175 165 140 148 167 168 174 183 177 153 153 152 148 145 158 157 155 155 189 186 165 144 142 145 131 122 228 283 305 300 295 289 282 286 291 293 292 292 298 297 298 297 291
336 91 327 318 231 233 233 248 240 276 232 148 252 147 158 102 206 229 243 194 153 203 202 195 204 211 162 177 188 207 220 223 220 193 178 185 195 216 196 187 133 96 69 111 146 152 154 163 166 136 128 141 153 156 154 152 154 154 154 155 193 189 154 144 145 137 130 131 122 272 293 289 289 276 273 283 290 297 291 281 280 286 290 290 295 299
192 142 207 206 212 48 150 250 267 252 232 125 139 39 239 171 240 205 171 257 195 186 179 207 209 213 172 206 212 213 229 238 221 226 230 223 214 216 182 175 184 181 170 147 161 202 161 162 180 184 168 152 156 156 158 147 152 159 157 183 202 157 151 144 136 127 124 120 235 274 278 280 279 283 287 286 281 284 288 288 289 283 283 290 295 291
216 108 242 263 187 173 199 209 216 228 124 168 142 179 204 213 193 163 145 213 223 183 188 184 220 207 194 196 204 225 233 239 267 252 255 255 233 237 209 206 228 236 215 213 193 177 174 175 167 159 153 157 159 160 160 156 158 165 172 199 154 151 135 132 116 114 115 200 248 265 277 272 277 275 276 276 281 280 283 290 285 284 279 281 283 292
210 190 180 196 210 164 202 214 213 180 161 198 185 188 196 216 184 184 172 183 175 231 190 182 215 212 200 204 212 204 221 227 226 218 199 225 217 209 203 204 200 203 202 202 203 181 178 178 174 160 156 168 165 163 161 163 157 165 184 185 152 152 146 138 126 130 194 230 249 260 260 276 270 274 272 270 269 281 283 286 287 294 277 271 284 279
287 207 134 79 252 265 298 173 128 357 197 197 235 217 205 229 231 158 183 210 228 191 172 190 217 205 202 202 195 237 216 230 222 234 222 232 224 225 216 215 226 228 219 181 165 180 188 147 144 158 166 172 176 166 167 169 158 168 198 153 154 147 148 141 144 176 217 232 243 250 258 278 280 270 263 263 257 252 260 271 286 283 289 281 273 270
242 145 142 212 271 147 256 111 153 204 217 204 214 234 249 258 235 198 210 224 232 182 200 219 211 203 190 174 192 211 227 223 224 229 214 225 229 225 206 208 216 206 199 203 199 155 158 161 164 177 176 179 186 174 174 167 173 161 142 155 149 148 144 150 169 198 215 238 242 257 252 257 273 276 269 264 262 258 263 268 268 271 274 270 273 273
304 175 153 235 231 161 234 225 228 358 297 247 233 228 240 243 244 224 215 224 230 225 203 218 180 176 138 179 206 207 230 225 211 231 221 217 222 221 215 216 217 211 216 199 161 171 169 180 183 183 183 187 182 175 171 171 172 161 149 152 150 145 145 168 182 197 218 229 230 247 246 251 262 267 275 267 267 279 280 265 255 261 259 259 261 270
188 111 224 179 182 257 288 271 213 344 301 266 241 237 240 244 244 243 222 231 239 246 246 222 190 200 181 217 203 205 224 239 215 218 223 229 229 228 223 219 214 212 196 172 182 175 186 190 192 191 186 185 169 169 172 177 172 163 159 163 157 151 159 184 196 200 216 229 228 246 243 241 251 263 270 282 268 253 247 266 269 264 265 241 229 237
86 236 195 90 112 175 198 224 136 217 256 250 226 225 230 236 231 240 232 232 235 236 236 228 244 225 217 227 200 191 211 236 230 204 222 229 228 226 226 225 220 206 199 195 169 189 195 196 191 182 184 176 167 172 175 176 173 170 169 164 159 156 169 182 185 193 226 224 224 243 246 257 261 263 269 272 284 283 276 254 273 274 272 273 279 277
189 224 172 190 155 227 233 219 201 213 235 239 236 219 218 227 208 218 230 231 235 228 225 216 236 247 236 239 207 197 218 227 236 205 219 234 236 226 220 215 206 200 198 174 167 188 197 194 183 174 177 174 170 174 175 173 173 171 175 167 163 164 173 166 177 201 224 227 238 238 243 249 266 269 267 268 273 278 289 302 286 290 290 287 287 288